Strona główna
METAR-TAF:

METAR-TAF

Lotnisko :

Greater Kankakee Airport

Kankakee, Illinois, Stany Zjednoczone

Szerokość geograficzna: 41-04-17N, Długość geograficzna: 087-50-47W, wysokość: 192 m

Aktualna obserwacja pogody

Raport powstał 26 minut temu, godzina 06:16 UTC
Wiatr 6 kt od południowy wschód
Temperatura 11°C
Wilgotność 66%
Ciśnienie 1025 hPa
Widzialność: 16.1 km
bezchmurnie

METAR: KIKK 010616Z AUTO 14006KT 10SM CLR 11/05 A3028 RMK AO2

czas: 01:42 (06:42 UTC)


TAF: brakujący

Obserwacja i prognoza pogody dla ponad 4000 lotnisk (raport METAR i TAF).

Dostępne stacje oznaczono żółtymi i czerwonymi punktami na mapie.

Najedź kursorem aby zobaczyć nazwę stacji.

Kliknij aby zobaczyć obserwacje i prognozy pogody.

Aby zmienić mapę: kliknij na zielony przycisk z czarnym krzyżykiem, aby powiększyć; na zielony przycisk z myślnikiem, aby pomniejszyć; na zielone strzałki, aby przejść do map sąsiednich.


METAR-TAF: